[[{"header":{"parameterUnit":"m.s-1","parameterCategory":1,"la1":30.2991,"la2":30.254,"lo1":-89.0895,"lo2":-89.0444,"dy":0.0017,"dx":0.0017,"nx":28,"ny":28,"refTime":"2023-11-01T09:00:00:Z","depth":0,"parameterNumber":2,"parameterNumberName":"U-component_of_WINDS"},"data":[0,0,0,0,0,0,0,0,0,0,0,0,0,0,0,0,0,0,0,0,0,0,0,0,0,0,0,0,0,0,0,0,0,0,0,0,0,0,0,0,0,0,0,0,0,0,0,0,0,0,0,0,0,0,0,0,0,0,-1.8652,-1.8652,0,-1.8704,-1.8705,-1.8706,-1.8662,-1.866,-1.8658,-1.8656,-1.8709,-1.8712,-1.8715,0,0,0,0,0,0,0,0,0,0,0,0,0,-1.8511,-1.8514,-1.8652,-1.8652,-1.8653,-1.8704,-1.8705,-1.8706,-1.8662,-1.866,-1.8658,-1.8656,-1.8708,-1.8712,-1.8716,0,0,0,0,0,0,0,0,0,0,0,0,0,-1.8569,-1.8515,-1.8652,-1.8638,-1.8637,-1.8704,-1.8705,-1.8706,-1.8663,-1.866,-1.8657,-1.8654,-1.8707,-1.8712,-1.8716,-1.88,0,0,-1.873,-1.8732,0,0,0,0,0,0,0,0,-1.8566,-1.8574,-1.8639,-1.8639,-1.8638,-1.8674,-1.8675,-1.8737,-1.8663,-1.8653,-1.8656,-1.8653,-1.87,-1.8705,-1.8721,-1.8802,-1.8805,-1.8731,-1.8734,-1.8736,-1.8737,0,0,0,0,0,0,0,-1.8562,-1.8572,-1.8673,-1.864,-1.8639,-1.8628,-1.8633,-1.8686,-1.8691,-1.8653,-1.865,-1.8657,-1.8699,-1.8716,-1.8721,-1.8805,-1.8731,-1.8735,-1.8738,-1.874,-1.8957,-1.896,0,0,0,0,0,0,-1.856,-1.8569,-1.8671,-1.8674,-1.8594,-1.8633,-1.8638,-1.8665,-1.869,-1.8691,-1.866,-1.8655,-1.871,-1.8716,-1.8723,-1.8822,-1.8736,-1.874,-1.8743,-1.8954,-1.8957,-1.8961,0,0,0,0,0,0,-1.8557,-1.8569,-1.8669,-1.8621,-1.8632,-1.8638,-1.8668,-1.8667,-1.8685,-1.8695,-1.8695,-1.8677,-1.8708,-1.8717,-1.8781,-1.8823,-1.8742,-1.8746,-1.895,-1.8955,-1.8959,-1.9021,0,0,0,0,0,0,-1.8553,-1.8568,-1.8601,-1.8622,-1.8635,-1.8727,-1.8671,-1.867,-1.8693,-1.8688,-1.8711,-1.8712,-1.8706,-1.8774,-1.8786,-1.8828,-1.875,-1.8947,-1.8952,-1.8958,-1.9015,-1.9027,-1.9037,0,0,0,0,0,-1.8548,-1.8616,-1.8603,-1.8615,-1.8676,-1.8729,-1.8737,-1.8729,-1.8697,-1.8729,-1.8735,-1.8711,-1.8817,-1.8781,-1.8794,-1.8838,-1.8944,-1.8951,-1.8957,-1.901,-1.9025,-1.9037,0,0,0,0,0,0,-1.8601,-1.8619,-1.8604,-1.8681,-1.8704,-1.8722,-1.8762,-1.8744,-1.8776,-1.877,-1.8758,-1.8764,-1.8831,-1.8841,-1.8801,-1.892,-1.8875,-1.8885,-1.8911,-1.8925,-1.8936,-1.8932,-1.8754,0,0,0,0,0,-1.8621,-1.8663,-1.8677,-1.8743,-1.8756,-1.8757,-1.878,-1.8771,-1.8794,-1.8804,-1.8814,-1.8837,-1.8875,-1.89,-1.8936,-1.9016,-1.902,-1.9053,-1.9064,-1.9073,-1.9081,-1.9123,-1.9137,-1.8983,-1.8983,-1.8982,0,0,-1.8664,-1.8679,-1.8707,-1.8754,-1.8771,-1.8814,-1.8765,-1.8813,-1.8845,-1.8811,-1.8872,-1.8881,-1.8905,-1.8977,-1.901,-1.8987,-1.9124,-1.9081,-1.9088,-1.9092,-1.9131,-1.9146,-1.9159,-1.8987,-1.8986,-1.8986,0,0,-1.8764,-1.878,-1.8837,-1.8855,-1.888,-1.888,-1.8894,-1.8914,-1.8919,-1.898,-1.8955,-1.8991,-1.9058,-1.9076,-1.9093,-1.9199,-1.9178,-1.921,-1.9268,-1.9308,-1.9321,-1.9331,-1.9368,-1.9381,-1.9219,-1.9219,-1.9219,0,-1.8814,-1.8879,-1.8869,-1.8918,-1.8939,-1.891,-1.8967,-1.8984,-1.902,-1.9035,-1.901,-1.9091,-1.9105,-1.9181,-1.9206,-1.9222,-1.9236,-1.9208,-1.932,-1.933,-1.934,-1.9375,-1.9389,-1.9223,-1.9222,-1.9222,-1.9221,0,-1.8939,-1.8983,-1.9026,-1.9061,-1.9087,-1.914,-1.9137,-1.9165,-1.9153,-1.9156,-1.9218,-1.9234,-1.9272,-1.9289,-1.9279,-1.9363,-1.9348,-1.9322,-1.9276,-1.9359,-1.9391,-1.9405,-1.9228,-1.9227,-1.9226,-1.9225,0,0,-1.9074,-1.9102,-1.9118,-1.9133,-1.9159,-1.9193,-1.9243,-1.928,-1.9304,-1.9329,-1.937,-1.9426,-1.9401,-1.9422,-1.9413,-1.9449,-1.953,-1.9418,-1.9418,-1.9438,-1.9622,-1.9641,-1.9657,-1.9516,-1.9518,-1.952,-1.962,0,-1.9175,-1.9264,-1.9256,-1.934,-1.9381,-1.9353,-1.9397,-1.9417,-1.942,-1.9454,-1.9458,-1.9497,-1.9462,-1.9474,-1.9508,-1.9513,-1.9567,-1.9506,-1.9554,-1.9556,-1.9549,-1.9674,-1.9695,-1.9788,-1.9632,-1.9634,-1.9636,0,-1.9305,-1.9335,-1.9423,-1.9441,-1.9457,-1.9497,-1.953,-1.9563,-1.9584,-1.9584,-1.9606,-1.9591,-1.9641,-1.9594,-1.9662,-1.9621,-1.964,-1.9645,-1.9648,-1.9653,-1.9601,-1.9681,-1.9818,-1.9831,-1.9656,-1.9654,-1.9653,0,-1.9394,-1.9456,-1.9517,-1.953,-1.9553,-1.9581,-1.9592,-1.9611,-1.9633,-1.9661,-1.9675,-1.9708,-1.9726,-1.9752,-1.9746,-1.9713,-1.9815,-1.9768,-1.9815,-1.9816,-1.9838,-1.9837,-1.998,-1.9851,-1.9851,-1.9851,-1.9851,0,-1.9508,-1.9563,-1.9557,-1.9594,-1.9654,-1.9643,-1.9703,-1.971,-1.9726,-1.9764,-1.9741,-1.9777,-1.9766,-1.9801,-1.9796,-1.9853,-1.9861,-1.9862,-1.986,-1.9864,-1.9864,-1.9876,-1.9869,-1.9855,-1.9854,-1.9853,-1.9852,0,-1.9618,-1.9616,-1.968,-1.9696,-1.9701,-1.9745,-1.9758,-1.9792,-1.9793,-1.9841,-1.9851,-1.9853,-1.9892,-1.9888,-1.9932,-1.9929,-1.9999,-1.9989,-1.9992,-1.9989,-2.0036,-2.0032,-2.0192,-2.0211,-2.0071,-2.0072,-2.0073,0,-1.969,-1.9732,-1.9752,-1.9775,-1.9788,-1.9826,-1.9848,-1.9838,-1.9862,-1.9889,-1.992,-1.9957,-1.9986,-2.005,-2.0055,-2.0088,-2.0079,-2.0133,-2.0084,-2.0086,-2.0079,-2.0076,-2.008,-2.0142,-2.0144,-2.0145,-2.0146,0,-1.9818,-1.9815,-1.9849,-1.9882,-1.9909,-1.9934,-1.9957,-1.9977,-1.997,-1.9998,-2.0038,-2.006,-2.0105,-2.0142,-2.0173,-2.0183,-2.0163,-2.0161,-2.0174,-2.0178,-2.0178,-2.0178,-2.0017,-2.0158,-2.0157,-2.0156,-2.0155,-2.0155,-1.9911,-1.9947,-1.9966,-2.0003,-2.0019,-2.0041,-2.0074,-2.0079,-2.0112,-2.0148,-2.014,-2.0184,-2.0203,-2.0242,-2.0255,-2.0289,-2.027,-2.0288,-2.0293,-2.0298,-2.0303,-2.0172,-2.0295,-2.0295,-2.0295,-2.0294,-2.0294,0,-2.0038,-2.0049,-2.0083,-2.0116,-2.0145,-2.0124,-2.0148,-2.0173,-2.0213,-2.0232,-2.0261,-2.0306,-2.0341,-2.0348,-2.0382,-2.0407,-2.0399,-2.0416,-2.0414,-2.0417,-2.0319,-2.0304,-2.0423,-2.0423,-2.0423,-2.0423,-2.0422,-2.0422,-2.0107,-2.0165,-2.0164,-2.0229,-2.0239,-2.0283,-2.0298,-2.0317,-2.0332,-2.0384,-2.0413,-2.0417,-2.0431,-2.0465,-2.0496,-2.0497,-2.051,-2.0531,-2.0528,-2.0437,-2.0424,-2.0411,-2.0398,-2.0534,-2.0534,-2.0623,-2.0624,-2.0625]},{"header":{"parameterUnit":"m.s-1","parameterCategory":1,"la1":30.2991,"la2":30.254,"lo1":-89.0895,"lo2":-89.0444,"dy":0.0017,"dx":0.0017,"nx":28,"ny":28,"refTime":"2023-11-01T09:00:00:Z","depth":0,"parameterNumber":3,"parameterNumberName":"V-component_of_WINDS"},"data":[0,0,0,0,0,0,0,0,0,0,0,0,0,0,0,0,0,0,0,0,0,0,0,0,0,0,0,0,0,0,0,0,0,0,0,0,0,0,0,0,0,0,0,0,0,0,0,0,0,0,0,0,0,0,0,0,0,0,-6.689,-6.6891,0,-6.7011,-6.7012,-6.7013,-6.6924,-6.692,-6.6916,-6.6912,-6.7029,-6.7035,-6.7042,0,0,0,0,0,0,0,0,0,0,0,0,0,-6.6574,-6.6581,-6.689,-6.6892,-6.6893,-6.701,-6.7012,-6.7014,-6.6924,-6.6919,-6.6915,-6.691,-6.7027,-6.7035,-6.7043,0,0,0,0,0,0,0,0,0,0,0,0,0,-6.6705,-6.6583,-6.689,-6.6863,-6.6861,-6.701,-6.7012,-6.7014,-6.6925,-6.6919,-6.6913,-6.6908,-6.7024,-6.7034,-6.7044,-6.7224,0,0,-6.7075,-6.7079,0,0,0,0,0,0,0,0,-6.6697,-6.6716,-6.6865,-6.6865,-6.6864,-6.6946,-6.6943,-6.7084,-6.6927,-6.6901,-6.6912,-6.6905,-6.7006,-6.7017,-6.7052,-6.7229,-6.7234,-6.7076,-6.7082,-6.7086,-6.7089,0,0,0,0,0,0,0,-6.6689,-6.6711,-6.6937,-6.6867,-6.6867,-6.6842,-6.6854,-6.697,-6.6984,-6.6903,-6.6896,-6.6912,-6.7004,-6.7043,-6.7054,-6.7236,-6.7075,-6.7084,-6.7091,-6.7095,-6.7563,-6.7569,0,0,0,0,0,0,-6.6683,-6.6704,-6.6934,-6.6941,-6.6765,-6.6852,-6.6866,-6.6926,-6.6983,-6.6986,-6.6917,-6.6908,-6.7028,-6.7043,-6.7058,-6.727,-6.7086,-6.7096,-6.7101,-6.7556,-6.7564,-6.7571,0,0,0,0,0,0,-6.6677,-6.6704,-6.6929,-6.6821,-6.6848,-6.6864,-6.6932,-6.6931,-6.6969,-6.6994,-6.6995,-6.6955,-6.7024,-6.7044,-6.7183,-6.7273,-6.71,-6.7109,-6.7549,-6.7559,-6.7568,-6.7698,0,0,0,0,0,0,-6.6668,-6.6703,-6.6773,-6.6823,-6.6854,-6.7055,-6.6937,-6.6938,-6.6988,-6.6977,-6.7029,-6.7032,-6.7021,-6.7168,-6.7193,-6.7284,-6.7117,-6.7541,-6.7553,-6.7565,-6.7685,-6.771,-6.7732,0,0,0,0,0,-6.6657,-6.6804,-6.6777,-6.6805,-6.6943,-6.706,-6.7077,-6.7063,-6.6996,-6.7065,-6.708,-6.7031,-6.726,-6.7183,-6.721,-6.7306,-6.7535,-6.755,-6.7564,-6.7675,-6.7705,-6.7731,0,0,0,0,0,0,-6.6762,-6.681,-6.6781,-6.6949,-6.7001,-6.7045,-6.7132,-6.7096,-6.7167,-6.7153,-6.7131,-6.7143,-6.7289,-6.7311,-6.7225,-6.7481,-6.7386,-6.7407,-6.7461,-6.7491,-6.7514,-6.7504,-6.7126,0,0,0,0,0,-6.6805,-6.6899,-6.6935,-6.708,-6.7108,-6.7116,-6.7166,-6.7151,-6.7203,-6.7224,-6.725,-6.73,-6.7383,-6.7438,-6.7516,-6.7688,-6.7697,-6.7767,-6.779,-6.7809,-6.7826,-6.7916,-6.7947,-6.7618,-6.7618,-6.7618,0,0,-6.6895,-6.6932,-6.6993,-6.7102,-6.714,-6.7235,-6.7135,-6.724,-6.7309,-6.7239,-6.7372,-6.7393,-6.7447,-6.7604,-6.7673,-6.7626,-6.7919,-6.7827,-6.7842,-6.7849,-6.7934,-6.7966,-6.7993,-6.7628,-6.7626,-6.7624,0,0,-6.7106,-6.7145,-6.7269,-6.731,-6.737,-6.7374,-6.7404,-6.7453,-6.7465,-6.7598,-6.7547,-6.7628,-6.7772,-6.7813,-6.7852,-6.8077,-6.8033,-6.8103,-6.8224,-6.8312,-6.8338,-6.8361,-6.8439,-6.8468,-6.812,-6.8121,-6.8121,0,-6.7208,-6.7352,-6.7336,-6.7446,-6.7493,-6.7437,-6.756,-6.76,-6.7682,-6.7715,-6.7662,-6.7841,-6.7874,-6.8037,-6.8092,-6.8127,-6.8157,-6.8096,-6.8336,-6.8359,-6.838,-6.8454,-6.8484,-6.8129,-6.8128,-6.8127,-6.8126,0,-6.7474,-6.7574,-6.7666,-6.7749,-6.7807,-6.7923,-6.7922,-6.7983,-6.7962,-6.7971,-6.8106,-6.8144,-6.8228,-6.8265,-6.8246,-6.8426,-6.8394,-6.834,-6.8243,-6.842,-6.8489,-6.8517,-6.814,-6.8137,-6.8135,-6.8133,0,0,-6.7754,-6.7827,-6.7861,-6.7896,-6.7959,-6.8034,-6.8146,-6.8229,-6.8281,-6.8339,-6.843,-6.8553,-6.8502,-6.8547,-6.8531,-6.8609,-6.8782,-6.8543,-6.8544,-6.8585,-6.8979,-6.9019,-6.9053,-6.8753,-6.8759,-6.8763,-6.8974,0,-6.7967,-6.8164,-6.8153,-6.8337,-6.8427,-6.8374,-6.8471,-6.8518,-6.8529,-6.8605,-6.8616,-6.8703,-6.863,-6.8657,-6.8731,-6.8745,-6.886,-6.873,-6.8835,-6.8839,-6.8822,-6.9089,-6.9132,-6.9329,-6.9001,-6.9006,-6.9009,0,-6.8241,-6.8311,-6.8504,-6.8551,-6.8589,-6.8676,-6.8751,-6.8826,-6.8876,-6.8878,-6.8929,-6.89,-6.9009,-6.8912,-6.9061,-6.8973,-6.9015,-6.9028,-6.9035,-6.9043,-6.8934,-6.9102,-6.9392,-6.9421,-6.9052,-6.9048,-6.9045,0,-6.8424,-6.8565,-6.8699,-6.8731,-6.879,-6.8853,-6.8879,-6.8925,-6.8975,-6.904,-6.9071,-6.9147,-6.9188,-6.9246,-6.9237,-6.9168,-6.9389,-6.9291,-6.9391,-6.9391,-6.9439,-6.9436,-6.9738,-6.9469,-6.9469,-6.9468,-6.9468,0,-6.8662,-6.8782,-6.8782,-6.8864,-6.8995,-6.898,-6.911,-6.9129,-6.917,-6.9253,-6.9211,-6.9289,-6.9273,-6.935,-6.9344,-6.9467,-6.9486,-6.9489,-6.9485,-6.9492,-6.9491,-6.9518,-6.9503,-6.9476,-6.9474,-6.9473,-6.9472,0,-6.8888,-6.8893,-6.9035,-6.9079,-6.9092,-6.9187,-6.9223,-6.93,-6.9307,-6.9412,-6.9435,-6.9446,-6.9535,-6.9532,-6.9632,-6.9627,-6.9778,-6.9759,-6.9761,-6.9757,-6.9857,-6.9847,-7.0185,-7.0228,-6.9933,-6.9936,-6.9939,0,-6.9038,-6.9129,-6.9184,-6.9237,-6.9268,-6.9355,-6.9406,-6.9394,-6.9448,-6.9513,-6.958,-6.9665,-6.9732,-6.9875,-6.989,-6.9965,-6.9947,-7.0061,-6.9958,-6.9961,-6.9946,-6.994,-6.9948,-7.008,-7.0083,-7.0086,-7.0088,0,-6.9304,-6.9302,-6.9379,-6.9457,-6.952,-6.958,-6.9635,-6.9681,-6.9674,-6.9737,-6.9828,-6.988,-6.9982,-7.0066,-7.0138,-7.0162,-7.0124,-7.0121,-7.0147,-7.0154,-7.0151,-7.0152,-6.9814,-7.0113,-7.011,-7.0108,-7.0107,-7.0106,-6.9495,-6.9573,-6.9623,-6.971,-6.975,-6.9803,-6.9876,-6.9893,-6.9969,-7.0053,-7.004,-7.0141,-7.0187,-7.028,-7.0311,-7.0388,-7.0347,-7.0387,-7.0396,-7.0406,-7.0416,-7.0141,-7.0401,-7.04,-7.04,-7.0399,-7.0399,0,-6.9757,-6.9787,-6.9867,-6.9946,-7.0014,-6.9974,-7.0032,-7.0091,-7.0181,-7.0228,-7.0295,-7.0398,-7.0479,-7.05,-7.0577,-7.0634,-7.0618,-7.0654,-7.0649,-7.0655,-7.0449,-7.0417,-7.0666,-7.0666,-7.0666,-7.0666,-7.0666,-7.0666,-6.9902,-7.0031,-7.0034,-7.0182,-7.0209,-7.031,-7.0346,-7.0393,-7.0431,-7.0548,-7.0616,-7.063,-7.0666,-7.0745,-7.0816,-7.082,-7.085,-7.0893,-7.089,-7.0697,-7.067,-7.0644,-7.0614,-7.09,-7.09,-7.1089,-7.109,-7.1092]}]]